Wellsville, NY

3:41 PM EDT on May 25, 2017 (GMT -0400)
Wellsville Municipal-Tarantine

Weather History for KELZ - August, 2014

Change the Weather History Date:

Monday, August 4, 2014

  Actual Average (KDSV) Record (KDSV)
Temperature  
Mean Temperature 69 °F -  
Max Temperature 79 °F 82 °F 98 °F (1955)
Min Temperature 59 °F 59 °F 46 °F (1976)
Cooling Degree Days 4    
Growing Degree Days 19 (Base 50)    
Moisture  
Dew Point 58 °F    
Average Humidity 79    
Maximum Humidity 90    
Minimum Humidity 45    
Precipitation  
Precipitation 0.00 in - - ()
Sea Level Pressure  
Sea Level Pressure 30.14 in    
Wind  
Wind Speed 3 mph (WNW)    
Max Wind Speed 9 mph    
Max Gust Speed -    
Visibility 7 miles    
Events Fog    
Averages and records for this station are not official NWS values.
T = Trace of Precipitation, MM = Missing Value Source: NWS Daily Summary

Daily Weather History Graph

Daily Weather History Graph

Search for Another Location

Airport or City:

Trip Planner

Search our weather history database for the weather conditions in past years. The results will help you decide how hot, cold, wet, or windy it might be!

Date:

Astronomy

Aug. 04, 2014 Rise Set
Actual Time 6:08 AM EDT 8:27 PM EDT
Civil Twilight 5:36 AM EDT 8:58 PM EDT
Nautical Twilight 4:58 AM EDT 9:36 PM EDT
Astronomical Twilight 4:15 AM EDT 10:19 PM EDT
Moon 2:36 PM EDT (8/4) 12:14 AM EDT (8/4)
Length of Visible Light 15h 21m
Length of Day
14h 19m
First Quarter, 57% of the Moon is Illuminated
Aug 4
First Quarter
Aug 10
Full
Aug 17
Last Quarter
Aug 25
New
Sep 2
First Quarter

Hourly Weather History & Observations

Time (EDT) Temp. Dew Point Humidity Pressure Visibility Wind Dir Wind Speed Gust Speed Precip Events Conditions
12:01 AM 62.1 °F 57.9 °F 86% 30.14 in 2.5 mi Calm Calm - N/A   Mostly Cloudy
12:05 AM 62.1 °F 57.9 °F 86% 30.13 in 0.8 mi NE 3.5 mph - N/A   Mostly Cloudy
12:36 AM 62.1 °F 59.0 °F 90% 30.14 in 2.0 mi Calm Calm - N/A   Overcast
12:44 AM 62.1 °F 57.9 °F 86% 30.14 in 3.0 mi Calm Calm - N/A   Overcast
1:11 AM 61.0 °F 57.0 °F 87% 30.14 in 1.8 mi Calm Calm - N/A   Mostly Cloudy
1:22 AM 62.1 °F 57.9 °F 86% 30.14 in 3.0 mi Calm Calm - N/A   Overcast
1:56 AM 62.1 °F 57.9 °F 86% 30.12 in 10.0 mi West 5.8 mph - N/A   Overcast
2:29 AM 62.1 °F 59.0 °F 90% 30.14 in 10.0 mi Calm Calm - N/A   Overcast
2:56 AM 62.1 °F 57.9 °F 86% 30.11 in 10.0 mi West 3.5 mph - N/A   Overcast
3:20 AM 62.1 °F 57.9 °F 86% 30.13 in 10.0 mi Calm Calm - N/A   Mostly Cloudy
3:34 AM 62.1 °F 57.0 °F 84% 30.13 in 10.0 mi Calm Calm - N/A   Scattered Clouds
3:56 AM 60.1 °F 57.0 °F 90% 30.11 in 10.0 mi WSW 4.6 mph - N/A   Clear
4:29 AM 60.1 °F 55.9 °F 86% 30.14 in 2.0 mi WNW 9.2 mph - N/A   Partly Cloudy
4:31 AM 60.1 °F 55.9 °F 86% 30.14 in 1.0 mi West 8.1 mph - N/A   Mist
4:38 AM 60.1 °F 57.0 °F 90% 30.14 in 0.5 mi West 6.9 mph - N/A Fog Fog
5:01 AM 61.0 °F 57.0 °F 87% 30.14 in 4.0 mi West 6.9 mph - N/A   Overcast
5:29 AM 60.1 °F 57.0 °F 90% 30.14 in 10.0 mi West 4.6 mph - N/A   Scattered Clouds
5:45 AM 60.1 °F 55.9 °F 86% 30.15 in 2.5 mi West 3.5 mph - N/A   Mostly Cloudy
5:56 AM 59.0 °F 55.9 °F 90% 30.13 in 1.8 mi West 4.6 mph - N/A   Mostly Cloudy
6:05 AM 59.0 °F 55.9 °F 90% 30.15 in 3.0 mi West 6.9 mph - N/A   Overcast
6:45 AM 60.1 °F 57.0 °F 90% 30.15 in 8.0 mi West 5.8 mph - N/A   Scattered Clouds
6:56 AM 60.1 °F 55.9 °F 86% 30.14 in 7.0 mi WNW 8.1 mph - N/A   Clear
7:04 AM 60.1 °F 57.0 °F 90% 30.16 in 5.0 mi West 8.1 mph - N/A   Scattered Clouds
7:13 AM 61.0 °F 57.0 °F 87% 30.16 in 5.0 mi West 6.9 mph - N/A   Mostly Cloudy
7:56 AM 62.1 °F 57.9 °F 86% 30.15 in 9.0 mi WNW 4.6 mph - N/A   Overcast
8:28 AM 62.1 °F 57.9 °F 86% 30.18 in 10.0 mi WNW 5.8 mph - N/A   Overcast
8:56 AM 63.0 °F 59.0 °F 87% 30.17 in 10.0 mi NW 5.8 mph - N/A   Overcast
9:28 AM 64.9 °F 59.0 °F 81% 30.18 in 10.0 mi Calm Calm - N/A   Overcast
9:56 AM 66.9 °F 59.0 °F 76% 30.16 in 10.0 mi Variable 3.5 mph - N/A   Mostly Cloudy
10:04 AM 68.0 °F 60.1 °F 76% 30.18 in 10.0 mi NNE 4.6 mph - N/A   Scattered Clouds
10:56 AM 70.0 °F 61.0 °F 73% 30.16 in 10.0 mi Calm Calm - N/A   Partly Cloudy
11:56 AM 73.9 °F 59.0 °F 59% 30.16 in 10.0 mi Calm Calm - N/A   Partly Cloudy
12:56 PM 73.9 °F 60.1 °F 62% 30.14 in 10.0 mi Variable 3.5 mph - N/A   Partly Cloudy
1:56 PM 77.0 °F 59.0 °F 54% 30.13 in 10.0 mi Variable 3.5 mph - N/A   Mostly Cloudy
2:56 PM 77.0 °F 57.9 °F 52% 30.12 in 10.0 mi West 5.8 mph - N/A   Mostly Cloudy
4:56 PM 79.0 °F 55.9 °F 45% 30.10 in 10.0 mi SW 4.6 mph - N/A   Partly Cloudy
5:56 PM 78.1 °F 57.9 °F 50% 30.10 in 10.0 mi West 4.6 mph - N/A   Partly Cloudy
6:56 PM 75.9 °F 57.9 °F 54% 30.11 in 10.0 mi West 5.8 mph - N/A   Clear
7:56 PM 72.0 °F 57.0 °F 59% 30.11 in 10.0 mi West 3.5 mph - N/A   Clear
8:56 PM 69.1 °F 55.9 °F 63% 30.11 in 10.0 mi West 5.8 mph - N/A   Clear
9:56 PM 66.0 °F 57.9 °F 75% 30.13 in 10.0 mi North 6.9 mph - N/A   Clear
10:56 PM 64.0 °F 57.0 °F 78% 30.12 in 10.0 mi WNW 5.8 mph - N/A   Clear
11:56 PM 64.9 °F 57.0 °F 75% 30.12 in 10.0 mi Calm Calm - N/A   Clear